Total_Precipitation_Accumulation
0.12 0.15 0.19 0.17 0.19 0.22 0.27 0.41 0.59 0.42 0.11 0.03 0.04 0.08 0.13 0.15 0.16 0.15 0.13 0.14 0.19 0.25 0.31 0.32 0.31 0.37 0.56 1.06 1.96 3.24 3.89 3.25 2.32 1.91 1.74 1.85 2.10 2.48
0.16 0.20 0.21 0.21 0.22 0.23 0.29 0.33 0.47 0.58 0.35 0.05 0.04 0.08 0.18 0.19 0.17 0.15 0.15 0.16 0.17 0.18 0.21 0.25 0.28 0.32 0.42 0.63 1.09 1.88 3.06 3.69 3.26 2.52 2.03 2.01 2.13 2.40
0.18 0.22 0.23 0.26 0.29 0.26 0.30 0.33 0.34 0.40 0.39 0.10 0.04 0.05 0.15 0.22 0.20 0.15 0.15 0.16 0.15 0.16 0.19 0.23 0.28 0.35 0.44 0.56 0.76 1.16 1.85 2.83 3.45 3.23 2.68 2.30 2.17 2.21
0.20 0.24 0.26 0.25 0.26 0.24 0.27 0.28 0.26 0.25 0.31 0.20 0.06 0.05 0.11 0.19 0.27 0.27 0.22 0.19 0.18 0.18 0.21 0.26 0.34 0.37 0.43 0.53 0.68 0.90 1.27 1.83 2.60 3.07 2.98 2.63 2.33 2.27
0.23 0.26 0.26 0.26 0.25 0.22 0.27 0.28 0.23 0.20 0.25 0.28 0.14 0.08 0.11 0.14 0.25 0.35 0.31 0.26 0.24 0.22 0.22 0.25 0.31 0.38 0.39 0.43 0.55 0.72 0.92 1.17 1.60 2.37 2.89 2.81 2.61 2.46
0.17 0.17 0.24 0.34 0.33 0.32 0.35 0.30 0.27 0.30 0.34 0.38 0.27 0.17 0.17 0.18 0.27 0.39 0.43 0.40 0.33 0.27 0.26 0.25 0.29 0.39 0.41 0.37 0.36 0.44 0.63 0.94 1.24 1.67 2.30 2.70 2.61 2.49
0.11 0.11 0.19 0.33 0.38 0.53 0.64 0.55 0.53 0.61 0.58 0.59 0.51 0.40 0.34 0.35 0.39 0.39 0.54 0.55 0.47 0.39 0.33 0.26 0.27 0.26 0.29 0.29 0.30 0.33 0.41 0.58 0.88 1.24 1.64 2.12 2.49 2.53
0.12 0.09 0.12 0.24 0.27 0.36 0.51 0.62 0.71 0.84 0.88 0.85 0.79 0.69 0.50 0.43 0.42 0.51 0.59 0.70 0.68 0.52 0.45 0.35 0.32 0.34 0.30 0.27 0.29 0.29 0.35 0.46 0.67 0.98 1.29 1.61 2.02 2.41
0.10 0.08 0.09 0.18 0.24 0.32 0.37 0.41 0.47 0.62 0.82 0.92 0.96 0.70 0.52 0.45 0.54 0.66 0.63 0.67 0.67 0.68 0.74 0.62 0.43 0.41 0.38 0.42 0.47 0.38 0.37 0.42 0.55 0.77 1.05 1.32 1.60 1.94
0.06 0.07 0.08 0.12 0.25 0.45 0.46 0.41 0.36 0.43 0.63 0.83 1.03 0.88 0.68 0.64 0.82 0.99 1.01 0.93 0.72 0.69 0.85 0.90 0.61 0.50 0.53 0.57 0.57 0.48 0.42 0.41 0.49 0.66 0.87 1.08 1.32 1.59
0.04 0.05 0.08 0.12 0.25 0.48 0.52 0.40 0.29 0.28 0.36 0.60 0.85 0.97 0.93 0.96 1.11 1.42 1.53 1.36 1.05 0.76 0.82 0.98 0.90 0.75 0.79 0.85 0.77 0.62 0.50 0.48 0.51 0.60 0.72 0.84 1.05 1.38
0.07 0.05 0.10 0.22 0.34 0.48 0.46 0.43 0.50 0.39 0.32 0.32 0.38 0.51 0.64 0.74 0.95 1.26 1.46 1.42 1.16 1.05 0.93 0.96 1.11 1.07 1.16 1.11 0.98 0.74 0.55 0.53 0.55 0.59 0.61 0.66 0.80 0.99
0.15 0.11 0.09 0.23 0.34 0.41 0.47 0.48 0.65 0.58 0.41 0.39 0.36 0.37 0.41 0.52 0.69 1.00 1.32 1.44 1.31 1.13 0.98 1.09 1.36 1.24 1.19 1.15 1.08 0.99 0.70 0.52 0.52 0.60 0.64 0.62 0.65 0.70
0.16 0.11 0.11 0.21 0.30 0.39 0.40 0.45 0.50 0.47 0.44 0.39 0.33 0.32 0.36 0.43 0.53 0.72 1.03 1.23 1.22 1.09 0.94 1.12 1.50 1.35 1.15 1.00 1.01 1.12 0.97 0.71 0.57 0.57 0.60 0.75 0.76 0.73
0.16 0.17 0.21 0.26 0.27 0.21 0.21 0.30 0.35 0.37 0.47 0.45 0.35 0.30 0.35 0.45 0.50 0.56 0.71 1.00 1.15 1.14 1.08 1.12 1.39 1.46 1.34 1.09 0.92 1.04 1.11 1.02 0.78 0.69 0.66 0.65 0.60 0.58
0.25 0.21 0.23 0.21 0.17 0.12 0.11 0.13 0.18 0.27 0.42 0.47 0.38 0.29 0.28 0.35 0.46 0.58 0.68 0.85 1.07 1.14 1.16 1.24 1.45 1.70 1.59 1.21 1.02 0.98 0.95 1.09 1.02 0.87 0.78 0.71 0.61 0.45
0.37 0.40 0.28 0.21 0.19 0.16 0.12 0.09 0.10 0.17 0.25 0.29 0.32 0.32 0.30 0.32 0.39 0.51 0.71 0.86 1.01 1.10 1.21 1.39 1.55 1.72 1.76 1.66 1.46 1.13 0.92 0.89 0.97 0.96 0.91 0.89 0.80 0.59
0.42 0.45 0.28 0.18 0.17 0.17 0.16 0.13 0.11 0.12 0.15 0.20 0.26 0.31 0.34 0.36 0.39 0.43 0.59 0.79 0.96 1.04 1.13 1.29 1.49 1.68 1.85 1.94 1.75 1.35 1.04 0.91 0.99 1.07 1.01 0.97 0.98 0.82
0.34 0.27 0.19 0.16 0.16 0.16 0.17 0.17 0.14 0.11 0.14 0.19 0.21 0.24 0.29 0.33 0.36 0.39 0.47 0.62 0.82 0.97 1.09 1.18 1.32 1.47 1.60 1.80 1.93 1.61 1.24 1.00 1.02 1.22 1.24 1.05 0.94 0.88
0.22 0.22 0.19 0.17 0.17 0.18 0.18 0.18 0.16 0.14 0.15 0.15 0.16 0.18 0.23 0.30 0.32 0.34 0.40 0.53 0.69 0.85 0.96 1.07 1.23 1.35 1.40 1.39 1.55 1.70 1.60 1.25 1.05 1.19 1.35 1.28 1.18 1.13
0.17 0.17 0.16 0.18 0.18 0.18 0.18 0.18 0.17 0.16 0.14 0.14 0.14 0.15 0.17 0.22 0.26 0.28 0.34 0.43 0.58 0.73 0.83 0.90 1.05 1.21 1.39 1.41 1.33 1.38 1.60 1.62 1.26 1.14 1.26 1.35 1.36 1.31
0.16 0.17 0.16 0.16 0.18 0.19 0.19 0.18 0.17 0.15 0.13 0.13 0.12 0.12 0.13 0.16 0.19 0.22 0.28 0.35 0.45 0.58 0.72 0.82 0.94 1.15 1.40 1.52 1.45 1.35 1.45 1.64 1.66 1.47 1.33 1.23 1.17 1.08
0.21 0.21 0.19 0.17 0.17 0.18 0.19 0.18 0.17 0.14 0.12 0.12 0.11 0.10 0.10 0.12 0.13 0.17 0.22 0.28 0.37 0.47 0.59 0.76 0.90 1.05 1.27 1.45 1.54 1.47 1.39 1.43 1.53 1.58 1.68 1.49 1.09 0.81